STARLINK-2336, 47879

Orbit data source: Space-Track

STARLINK-2336, 47879 is a payload satellite owned by SpaceX/Seattle (US) in LEO that was launched on Sun, 14 Mar 2021 UTC via an FALCON 9 launch vehicle from the Air Force Eastern Test Range (AFETR). Payload-class satellites include a variety of spacecraft equipped with specific instruments for various scientific and technological missions. These include communications satellites like Starlink; space stations such as the ISS; scientific satellites like the Hubble; Earth observation satellites from companies like Planet Labs, Umbra, and HawkEye 360; GPS; miniature CubeSats for education and research; and military/defense satellites.

Loading next visibility...
Identifier
47879, 2021-021V
Orbit
LEO
Country
Flag of USUS
Related business
Manufacturer
SpaceX/Seattle
Mission
Partially operational Commercial Communications
Bus & Motor
STARLINK, Unknown motor
Mass
260 kg wet, ~248 kg dry
Launch date (UTC)
2021-03-14 (5 years ago)
Launch vehicle
FALCON 9
Launch site
Air Force Eastern Test Range (AFETR)
Object type
Payload
Rocket body
Debris
Shape & HBR
Box + 1 Pan, 10.1 m
Radar Cross Section
13.562 m², Large (>1 m²)

Expand to show TLE details & history
Last TLE update: 2 days ago

TLE from 2 days ago
0 STARLINK-2336
1 47879U 21021V   26171.41668980  .01444521  00000-0  18118-1 0  9991
2 47879  53.1528 150.9731 0001299  85.8432  75.6006 15.56631255  5916
Epoch: 2026-06-20T10:00Z
TLE epoch observation values (Epoch: 2026-06-20T10:00:01.998Z)
Latitude
14.7542°
Longitude
-98.9847°
Altitude
397.381 km
Speed
7.675 km/s
True Right ascension
21h 18m 37s
True Declination
14° 39' 55"
Sunlit
Object was in full shadow at epoch
Visualization orbit readout
Latitude
Unknown
Longitude
Unknown
Altitude
Unknown
Speed
Unknown
Apparent Right ascension
Unknown
Apparent Declination
Unknown
Sunlit
N/A
Visualization observer readout
Local Sidereal Time
21:27:48
Azimuth
Unknown
Elevation
Unknown
Doppler factor
Unknown
Orbital elements
Apogee altitude
398.556 km
Perigee altitude
396.795 km
Semi-major axis
6,775.812 km
Eccentricity
0.00013
Inclination
53.1528°
RAAN
150.9731°
Arg. of periapsis
85.8432°
True anomaly
75.61502°
Mean anomaly
75.6006°
Eccentric anomaly
75.60781°
Mean motion
3.89136 °/min
Orbital period
92.51 mins
BSTAR
0.018118
Loading maneuver chart data...
Computing Atmospheric mass density...

Documentation

Showing up to 5 results
|